Time,TemperatureF,DewpointF,PressureIn,WindDirection,WindDirectionDegrees,WindSpeedMPH,WindSpeedGustMPH,Humidity,HourlyPrecipIn,Conditions,Clouds,dailyrainin,SoftwareType,DateUTC
2013-05-25 00:01:00,51.0,51.0,30.15,ESE,113,2.0,3.0,100,0.00,,,0.20,,2013-05-25 07:01:00,
2013-05-25 00:11:00,51.0,51.0,30.15,ESE,113,2.0,3.0,100,0.00,,,0.20,,2013-05-25 07:11:00,
2013-05-25 00:21:00,50.0,50.0,30.15,ESE,117,3.0,4.0,100,0.00,,,0.17,,2013-05-25 07:21:00,
2013-05-25 00:31:00,50.0,50.0,30.15,ESE,109,1.0,4.0,100,0.00,,,0.17,,2013-05-25 07:31:00,
2013-05-25 00:41:00,50.0,50.0,30.15,ESE,109,1.0,4.0,100,0.00,,,0.17,,2013-05-25 07:41:00,
2013-05-25 00:52:00,50.0,50.0,30.15,ESE,118,2.0,4.0,100,0.00,,,0.17,,2013-05-25 07:52:00,
2013-05-25 01:02:00,50.0,50.0,30.14,SE,146,2.0,4.0,100,0.00,,,0.17,,2013-05-25 08:02:00,
2013-05-25 01:11:00,50.0,50.0,30.14,SE,146,2.0,4.0,100,0.00,,,0.17,,2013-05-25 08:11:00,
2013-05-25 01:22:00,50.0,50.0,30.14,SE,138,2.0,4.0,100,0.00,,,0.16,,2013-05-25 08:22:00,
2013-05-25 01:32:00,50.0,50.0,30.14,SE,134,4.0,5.0,100,0.00,,,0.16,,2013-05-25 08:32:00,
2013-05-25 01:42:00,50.0,50.0,30.14,SE,134,4.0,5.0,100,0.00,,,0.16,,2013-05-25 08:42:00,
2013-05-25 01:51:00,50.0,49.0,30.14,ESE,116,4.0,5.0,95,0.00,,,0.16,,2013-05-25 08:51:00,
2013-05-25 02:01:00,50.0,47.0,30.14,ESE,117,3.0,4.0,89,0.00,,,0.16,,2013-05-25 09:01:00,
2013-05-25 02:11:00,50.0,47.0,30.14,ESE,117,3.0,4.0,89,0.00,,,0.16,,2013-05-25 09:11:00,
2013-05-25 02:21:00,49.0,44.0,30.14,ESE,121,3.0,4.0,84,0.00,,,0.16,,2013-05-25 09:21:00,
2013-05-25 02:33:00,49.0,44.0,30.13,ESE,119,3.0,4.0,82,0.00,,,0.16,,2013-05-25 09:33:00,
2013-05-25 02:42:00,49.0,44.0,30.13,ESE,119,3.0,4.0,82,0.00,,,0.16,,2013-05-25 09:42:00,
2013-05-25 02:52:00,49.0,45.0,30.13,ESE,114,3.0,4.0,85,0.00,,,0.16,,2013-05-25 09:52:00,
2013-05-25 03:02:00,49.0,43.0,30.12,ESE,118,4.0,5.0,80,0.00,,,0.16,,2013-05-25 10:02:00,
2013-05-25 03:12:00,49.0,43.0,30.12,ESE,118,4.0,5.0,80,0.00,,,0.16,,2013-05-25 10:12:00,
2013-05-25 03:22:00,49.0,41.0,30.12,SE,124,4.0,5.0,74,0.00,,,0.16,,2013-05-25 10:22:00,
2013-05-25 03:32:00,49.0,41.0,30.12,SE,134,2.0,4.0,75,0.00,,,0.16,,2013-05-25 10:32:00,
2013-05-25 03:42:00,49.0,41.0,30.12,SE,134,2.0,4.0,75,0.00,,,0.16,,2013-05-25 10:42:00,
2013-05-25 03:52:00,49.0,41.0,30.12,ESE,114,3.0,4.0,74,0.00,,,0.16,,2013-05-25 10:52:00,
2013-05-25 04:02:00,49.0,39.0,30.12,SE,127,3.0,5.0,68,0.00,,,0.16,,2013-05-25 11:02:00,
2013-05-25 04:12:00,49.0,39.0,30.12,SE,127,3.0,5.0,68,0.00,,,0.16,,2013-05-25 11:12:00,
2013-05-25 04:21:00,49.0,39.0,30.12,SE,128,3.0,4.0,68,0.00,,,0.15,,2013-05-25 11:21:00,
2013-05-25 04:32:00,49.0,39.0,30.12,ESE,105,2.0,4.0,67,0.00,,,0.15,,2013-05-25 11:32:00,
2013-05-25 04:52:00,49.0,39.0,30.12,ESE,121,2.0,4.0,69,0.00,,,0.15,,2013-05-25 11:52:00,
2013-05-25 05:01:00,49.0,41.0,30.11,ENE,78,2.0,4.0,73,0.00,,,0.15,,2013-05-25 12:01:00,
2013-05-25 05:12:00,49.0,41.0,30.11,ENE,78,2.0,4.0,73,0.00,,,0.15,,2013-05-25 12:12:00,
2013-05-25 05:21:00,49.0,42.0,30.11,SE,142,5.0,7.0,77,0.00,,,0.15,,2013-05-25 12:21:00,
2013-05-25 05:32:00,49.0,43.0,30.11,ESE,105,3.0,5.0,79,0.00,,,0.15,,2013-05-25 12:32:00,
2013-05-25 05:42:00,49.0,43.0,30.11,ESE,105,3.0,5.0,79,0.00,,,0.15,,2013-05-25 12:42:00,
2013-05-25 05:52:00,49.0,43.0,30.11,ESE,123,1.0,3.0,79,0.00,,,0.15,,2013-05-25 12:52:00,
2013-05-25 06:02:00,49.0,42.0,30.11,ESE,122,2.0,3.0,78,0.00,,,0.15,,2013-05-25 13:02:00,
2013-05-25 06:11:00,49.0,42.0,30.11,ESE,122,2.0,3.0,78,0.00,,,0.15,,2013-05-25 13:11:00,
2013-05-25 06:21:00,49.0,42.0,30.11,ESE,122,2.0,3.0,78,0.00,,,0.15,,2013-05-25 13:21:00,
2013-05-25 06:32:00,49.0,42.0,30.11,SE,133,3.0,5.0,78,0.00,,,0.15,,2013-05-25 13:32:00,
2013-05-25 06:42:00,49.0,42.0,30.11,SE,133,3.0,5.0,78,0.00,,,0.15,,2013-05-25 13:42:00,
2013-05-25 06:52:00,49.0,44.0,30.11,ESE,115,2.0,5.0,83,0.00,,,0.15,,2013-05-25 13:52:00,
2013-05-25 07:02:00,49.0,46.0,30.10,ENE,78,5.0,7.0,88,0.00,,,0.15,,2013-05-25 14:02:00,
2013-05-25 07:11:00,49.0,46.0,30.10,ENE,78,5.0,7.0,88,0.00,,,0.15,,2013-05-25 14:11:00,
2013-05-25 07:22:00,50.0,49.0,30.11,ESE,103,2.0,7.0,95,0.00,,,0.15,,2013-05-25 14:22:00,
2013-05-25 07:32:00,50.0,50.0,30.11,East,85,3.0,6.0,100,0.00,,,0.15,,2013-05-25 14:32:00,
2013-05-25 07:41:00,50.0,50.0,30.11,East,85,3.0,6.0,100,0.00,,,0.15,,2013-05-25 14:41:00,
2013-05-25 07:52:00,50.0,50.0,30.11,East,86,2.0,3.0,100,0.00,,,0.15,,2013-05-25 14:52:00,
2013-05-25 08:01:00,51.0,51.0,30.11,ESE,109,2.0,4.0,100,0.00,,,0.15,,2013-05-25 15:01:00,
2013-05-25 08:11:00,51.0,51.0,30.11,ESE,109,2.0,4.0,100,0.00,,,0.15,,2013-05-25 15:11:00,
2013-05-25 08:22:00,51.0,51.0,30.11,East,93,3.0,5.0,100,0.00,,,0.13,,2013-05-25 15:22:00,
2013-05-25 08:33:00,51.0,51.0,30.11,ESE,119,4.0,6.0,100,0.00,,,0.13,,2013-05-25 15:33:00,
2013-05-25 08:43:00,51.0,51.0,30.11,ESE,119,4.0,6.0,100,0.00,,,0.13,,2013-05-25 15:43:00,
2013-05-25 08:53:00,52.0,52.0,30.11,SSE,149,4.0,6.0,100,0.00,,,0.13,,2013-05-25 15:53:00,
2013-05-25 09:03:00,53.0,53.0,30.11,ESE,105,4.0,6.0,100,0.00,,,0.13,,2013-05-25 16:03:00,
2013-05-25 09:12:00,53.0,53.0,30.11,ESE,105,4.0,6.0,100,0.00,,,0.13,,2013-05-25 16:12:00,
2013-05-25 09:22:00,54.0,54.0,30.11,East,85,4.0,8.0,100,0.00,,,0.10,,2013-05-25 16:22:00,
2013-05-25 09:32:00,53.0,53.0,30.11,SE,138,7.0,10.0,100,0.00,,,0.10,,2013-05-25 16:32:00,
2013-05-25 09:42:00,53.0,53.0,30.11,SE,138,7.0,10.0,100,0.00,,,0.10,,2013-05-25 16:42:00,
2013-05-25 09:52:00,54.0,54.0,30.11,SSE,153,6.0,9.0,100,0.00,,,0.10,,2013-05-25 16:52:00,
2013-05-25 10:02:00,54.0,54.0,30.11,SSE,161,6.0,9.0,100,0.00,,,0.10,,2013-05-25 17:02:00,
2013-05-25 10:11:00,54.0,54.0,30.11,SSE,161,6.0,9.0,100,0.00,,,0.10,,2013-05-25 17:11:00,
2013-05-25 10:22:00,55.0,55.0,30.10,SE,136,6.0,7.0,100,0.00,,,0.09,,2013-05-25 17:22:00,
2013-05-25 10:32:00,55.0,55.0,30.10,SSE,160,6.0,10.0,100,0.00,,,0.09,,2013-05-25 17:32:00,
2013-05-25 10:41:00,55.0,55.0,30.10,SSE,160,6.0,10.0,100,0.00,,,0.09,,2013-05-25 17:41:00,
2013-05-25 10:52:00,54.0,54.0,30.10,SSW,196,6.0,12.0,100,0.00,,,0.09,,2013-05-25 17:52:00,
2013-05-25 11:01:00,54.0,54.0,30.10,South,178,7.0,13.0,100,0.00,,,0.09,,2013-05-25 18:01:00,
2013-05-25 11:11:00,54.0,54.0,30.10,South,178,7.0,13.0,100,0.00,,,0.09,,2013-05-25 18:11:00,
2013-05-25 11:21:00,55.0,55.0,30.09,SE,144,7.0,11.0,100,0.00,,,0.05,,2013-05-25 18:21:00,
2013-05-25 11:32:00,55.0,55.0,30.10,SSE,158,7.0,14.0,100,0.00,,,0.05,,2013-05-25 18:32:00,
2013-05-25 11:42:00,55.0,55.0,30.10,SSE,158,7.0,14.0,100,0.00,,,0.05,,2013-05-25 18:42:00,
2013-05-25 11:52:00,56.0,56.0,30.09,South,176,5.0,13.0,100,0.00,,,0.05,,2013-05-25 18:52:00,
2013-05-25 12:01:00,55.0,55.0,30.09,SSW,198,8.0,15.0,100,0.00,,,0.05,,2013-05-25 19:01:00,
2013-05-25 12:11:00,55.0,55.0,30.09,SSW,198,8.0,15.0,100,0.00,,,0.05,,2013-05-25 19:11:00,
2013-05-25 12:21:00,55.0,55.0,30.09,SSW,195,7.0,13.0,100,0.00,,,0.03,,2013-05-25 19:21:00,
2013-05-25 12:31:00,56.0,56.0,30.10,SSW,197,9.0,14.0,100,0.00,,,0.03,,2013-05-25 19:31:00,
2013-05-25 12:41:00,56.0,56.0,30.10,SSW,197,9.0,14.0,100,0.00,,,0.03,,2013-05-25 19:41:00,
2013-05-25 12:52:00,55.0,55.0,30.10,SSW,211,8.0,16.0,100,0.00,,,0.03,,2013-05-25 19:52:00,
2013-05-25 13:02:00,56.0,56.0,30.10,SSW,202,7.0,13.0,100,0.00,,,0.03,,2013-05-25 20:02:00,
2013-05-25 13:11:00,56.0,56.0,30.10,SSW,202,7.0,13.0,100,0.00,,,0.03,,2013-05-25 20:11:00,
2013-05-25 13:21:00,56.0,56.0,30.10,SSW,203,8.0,14.0,100,0.00,,,0.01,,2013-05-25 20:21:00,
2013-05-25 13:32:00,56.0,56.0,30.10,SSW,193,7.0,15.0,100,0.00,,,0.01,,2013-05-25 20:32:00,
2013-05-25 13:42:00,56.0,56.0,30.10,SSW,193,7.0,15.0,100,0.00,,,0.01,,2013-05-25 20:42:00,
2013-05-25 13:51:00,55.0,55.0,30.10,South,188,11.0,17.0,100,0.00,,,0.01,,2013-05-25 20:51:00,
2013-05-25 14:02:00,56.0,56.0,30.09,SW,215,10.0,17.0,100,0.00,,,0.01,,2013-05-25 21:02:00,
2013-05-25 14:11:00,56.0,56.0,30.09,SW,215,10.0,17.0,100,0.00,,,0.01,,2013-05-25 21:11:00,
2013-05-25 14:21:00,56.0,56.0,30.09,SW,223,12.0,18.0,100,0.00,,,0.00,,2013-05-25 21:21:00,
2013-05-25 14:32:00,55.0,55.0,30.09,SW,223,13.0,17.0,100,0.00,,,0.00,,2013-05-25 21:32:00,
2013-05-25 14:43:00,55.0,55.0,30.09,SW,223,13.0,17.0,100,0.00,,,0.00,,2013-05-25 21:43:00,
2013-05-25 14:53:00,56.0,56.0,30.09,South,169,9.0,15.0,100,0.00,,,0.00,,2013-05-25 21:53:00,
2013-05-25 15:02:00,56.0,56.0,30.08,South,187,10.0,15.0,100,0.00,,,0.00,,2013-05-25 22:02:00,
2013-05-25 15:12:00,56.0,56.0,30.08,South,187,10.0,15.0,100,0.00,,,0.00,,2013-05-25 22:12:00,
2013-05-25 15:22:00,56.0,56.0,30.08,SSW,192,9.0,15.0,100,0.00,,,0.00,,2013-05-25 22:22:00,
2013-05-25 15:32:00,56.0,56.0,30.08,SW,233,7.0,14.0,100,0.00,,,0.00,,2013-05-25 22:32:00,
2013-05-25 15:42:00,56.0,56.0,30.08,SW,233,7.0,14.0,100,0.00,,,0.00,,2013-05-25 22:42:00,
2013-05-25 15:52:00,56.0,56.0,30.08,SSW,212,5.0,15.0,100,0.00,,,0.00,,2013-05-25 22:52:00,
2013-05-25 16:02:00,56.0,56.0,30.07,South,173,6.0,14.0,100,0.00,,,0.00,,2013-05-25 23:02:00,
2013-05-25 16:12:00,56.0,56.0,30.07,South,173,6.0,14.0,100,0.00,,,0.00,,2013-05-25 23:12:00,
2013-05-25 16:21:00,56.0,56.0,30.07,SSW,200,9.0,14.0,100,0.00,,,0.00,,2013-05-25 23:21:00,
2013-05-25 16:32:00,56.0,56.0,30.07,SW,219,7.0,13.0,100,0.00,,,0.00,,2013-05-25 23:32:00,
2013-05-25 16:42:00,56.0,56.0,30.07,SW,219,7.0,13.0,100,0.00,,,0.00,,2013-05-25 23:42:00,
2013-05-25 16:52:00,56.0,56.0,30.07,South,190,5.0,13.0,100,0.00,,,0.00,,2013-05-25 23:52:00,
2013-05-25 17:01:00,56.0,56.0,30.06,SSW,208,9.0,12.0,100,0.00,,,0.00,,2013-05-26 00:01:00,
2013-05-25 17:11:00,56.0,56.0,30.06,SSW,208,9.0,12.0,100,0.00,,,0.00,,2013-05-26 00:11:00,
2013-05-25 17:21:00,56.0,56.0,30.06,SSW,213,6.0,14.0,100,0.00,,,0.00,,2013-05-26 00:21:00,
2013-05-25 17:31:00,55.0,55.0,30.06,SW,214,8.0,14.0,100,0.00,,,0.00,,2013-05-26 00:31:00,
2013-05-25 17:42:00,55.0,55.0,30.06,SW,214,8.0,14.0,100,0.00,,,0.00,,2013-05-26 00:42:00,
2013-05-25 17:52:00,55.0,55.0,30.06,SW,223,9.0,14.0,100,0.00,,,0.00,,2013-05-26 00:52:00,
2013-05-25 18:01:00,56.0,56.0,30.06,South,180,10.0,15.0,100,0.00,,,0.00,,2013-05-26 01:01:00,
2013-05-25 18:11:00,56.0,56.0,30.06,South,180,10.0,15.0,100,0.00,,,0.00,,2013-05-26 01:11:00,
2013-05-25 18:21:00,56.0,56.0,30.05,SW,216,4.0,12.0,100,0.00,,,0.00,,2013-05-26 01:21:00,
2013-05-25 18:32:00,55.0,55.0,30.05,SE,146,3.0,11.0,100,0.00,,,0.00,,2013-05-26 01:32:00,
2013-05-25 18:42:00,55.0,55.0,30.05,SE,146,3.0,11.0,100,0.00,,,0.00,,2013-05-26 01:42:00,
2013-05-25 18:52:00,55.0,55.0,30.05,SSE,161,4.0,11.0,100,0.00,,,0.00,,2013-05-26 01:52:00,
2013-05-25 19:02:00,55.0,55.0,30.04,South,178,7.0,11.0,100,0.00,,,0.00,,2013-05-26 02:02:00,
2013-05-25 19:11:00,55.0,55.0,30.04,South,178,7.0,11.0,100,0.00,,,0.00,,2013-05-26 02:11:00,
2013-05-25 19:21:00,55.0,55.0,30.04,South,169,5.0,11.0,100,0.00,,,0.00,,2013-05-26 02:21:00,
2013-05-25 19:32:00,54.0,54.0,30.03,SSE,167,6.0,12.0,100,0.00,,,0.00,,2013-05-26 02:32:00,
2013-05-25 19:41:00,54.0,54.0,30.03,SSE,167,6.0,12.0,100,0.00,,,0.00,,2013-05-26 02:41:00,
2013-05-25 19:52:00,54.0,54.0,30.04,SSE,165,5.0,10.0,100,0.00,,,0.00,,2013-05-26 02:52:00,
2013-05-25 20:01:00,54.0,54.0,30.04,SSE,165,5.0,10.0,100,0.00,,,0.00,,2013-05-26 03:01:00,
2013-05-25 20:11:00,54.0,54.0,30.04,SSE,165,5.0,10.0,100,0.00,,,0.00,,2013-05-26 03:11:00,
2013-05-25 20:21:00,54.0,54.0,30.03,SSE,164,8.0,14.0,100,0.00,,,0.00,,2013-05-26 03:21:00,
2013-05-25 20:33:00,54.0,54.0,30.03,South,175,5.0,9.0,100,0.00,,,0.00,,2013-05-26 03:33:00,
2013-05-25 20:42:00,54.0,54.0,30.03,South,175,5.0,9.0,100,0.00,,,0.00,,2013-05-26 03:42:00,
2013-05-25 20:53:00,54.0,54.0,30.02,SE,146,4.0,9.0,100,0.00,,,0.00,,2013-05-26 03:53:00,
2013-05-25 21:02:00,54.0,54.0,30.02,SE,142,4.0,11.0,100,0.00,,,0.00,,2013-05-26 04:02:00,
2013-05-25 21:12:00,54.0,54.0,30.02,SE,142,4.0,11.0,100,0.00,,,0.00,,2013-05-26 04:12:00,
2013-05-25 21:23:00,54.0,54.0,30.01,SSE,148,3.0,7.0,100,0.01,,,0.01,,2013-05-26 04:23:00,
2013-05-25 21:33:00,54.0,54.0,30.01,SE,142,4.0,10.0,100,0.01,,,0.01,,2013-05-26 04:33:00,
2013-05-25 21:42:00,54.0,54.0,30.01,SE,142,4.0,10.0,100,0.01,,,0.01,,2013-05-26 04:42:00,
2013-05-25 21:52:00,54.0,54.0,30.02,SE,132,3.0,7.0,100,0.01,,,0.01,,2013-05-26 04:52:00,
2013-05-25 22:02:00,54.0,54.0,30.02,SE,128,4.0,5.0,100,0.02,,,0.02,,2013-05-26 05:02:00,
2013-05-25 22:12:00,54.0,54.0,30.02,SE,128,4.0,5.0,100,0.02,,,0.02,,2013-05-26 05:12:00,
2013-05-25 22:21:00,54.0,54.0,30.01,ESE,119,2.0,4.0,100,0.02,,,0.03,,2013-05-26 05:21:00,
2013-05-25 22:32:00,54.0,54.0,30.02,East,92,2.0,5.0,100,0.02,,,0.03,,2013-05-26 05:32:00,
2013-05-25 22:42:00,54.0,54.0,30.02,East,92,2.0,5.0,100,0.02,,,0.03,,2013-05-26 05:42:00,
2013-05-25 22:52:00,53.0,53.0,30.01,ESE,113,3.0,6.0,100,0.03,,,0.04,,2013-05-26 05:52:00,
2013-05-25 23:01:00,53.0,53.0,30.01,East,97,4.0,5.0,100,0.02,,,0.04,,2013-05-26 06:01:00,
2013-05-25 23:11:00,53.0,53.0,30.01,East,97,4.0,5.0,100,0.02,,,0.04,,2013-05-26 06:11:00,
2013-05-25 23:21:00,53.0,53.0,30.01,ESE,117,3.0,5.0,100,0.03,,,0.06,,2013-05-26 06:21:00,
2013-05-25 23:32:00,53.0,53.0,30.01,East,92,3.0,4.0,100,0.04,,,0.07,,2013-05-26 06:32:00,
2013-05-25 23:41:00,53.0,53.0,30.01,East,92,3.0,4.0,100,0.04,,,0.07,,2013-05-26 06:41:00,
2013-05-25 23:51:00,53.0,53.0,30.01,ESE,119,2.0,4.0,100,0.03,,,0.07,,2013-05-26 06:51:00,